Location: Waco, TX
(31.5480°N, 97.1670°W)
Time: 03:02:36
(UTC-05:00)

ISS - Pass Details

Date: 15 September 2017
Orbit: 401 x 407 km, 51.6° (Epoch: 22 September)

Event Time Altitude Azimuth Distance (km) Brightness Sun altitude
Rises 01:08:09 0° 250° (WSW) 2,312 - -55.3°
Reaches altitude 10° 01:10:28 10° 264° (W) 1,457 - -55.4°
Maximum altitude 01:13:12 24° 322° (NW) 876 - -55.4°
Drops below altitude 10° 01:15:58 10° 19° (NNE) 1,465 - -55.5°
Sets 01:18:19 0° 34° (NNE) 2,328 - -55.5°
